Flag for Central African Republic Weather past 2 weeks in Bimbo, Central African Republic

Now
88 °F

Passing clouds.


Feels Like: 98 °F
Forecast: 75 / 94 °F
Wind: 3 mph from North

Location: Bangui Airport

Current Time: May 6, 2015 at 6:34:07 PM

Latest Report: May 6, 2015 at 6:00 PM


Visibility: N/A

Pressure: 29.77 "Hg

Humidity: 66%

Dew point: 75 °F

Location of BimboLocation

Historic Weather in Bimbo — Graph

°F

Bimbo temperature yesterday

Maximum temperature yesterday: 90 °F (at 3:00 PM)
Minimum temperature yesterday: 72 °F (at 4:00 AM)
Average temperature yesterday: 80 °F

Past Weeks' High & Low Weather Summary

 TemperatureHumidityPressure
High97 °F (Apr 23, 2:00 PM)100% (Apr 23, 4:00 PM)29.95 "Hg (Apr 23, 4:00 PM)
Low70 °F (Apr 26, 6:00 AM)39% (May 1, 3:00 PM)29.71 "Hg (Apr 29, 4:00 PM)
Average81 °F77%29.84 "Hg
* Reported Apr 21 5:00 PM — May 6 5:00 PM, Bimbo, Weather by CustomWeather, © 2015

Note: Actual official high and low records may vary slightly from our data, if they occured in-between our weather recording intervals... More about our weather records

Advertising

Bimbo weather history for previous 24 hours

 ConditionsComfort  
Time TempWeatherWind HumidityBarometerVisibility
5:00 PM
Wed, May 6
90 °FPassing clouds.3 mph63%29.74 "HgN/A
4:00 PM93 °FPartly sunny.5 mph53%29.74 "HgN/A
3:00 PM93 °FBroken clouds.5 mph53%29.74 "HgN/A
2:00 PM93 °FPartly sunny.6 mph53%29.80 "HgN/A
1:00 PM91 °FScattered clouds.5 mph56%29.83 "HgN/A
12:00 PM91 °FScattered clouds.3 mph59%29.86 "HgN/A
11:00 AM90 °FScattered clouds.7 mph59%29.89 "HgN/A
10:00 AM88 °FBroken clouds.6 mph62%29.89 "HgN/A
9:00 AM84 °FPartly sunny.6 mph70%29.89 "HgN/A
8:00 AM81 °FPassing clouds.5 mph84%29.89 "HgN/A
7:00 AM77 °FSunny.5 mph94%29.86 "Hg10 mi
6:00 AM75 °FSunny.No wind94%29.86 "Hg10 mi
4:00 AM75 °FClear.No wind100%29.83 "Hg10 mi
2:00 AM77 °FClear.3 mph94%29.83 "Hg10 mi
1:00 AM77 °FClear.No wind100%29.86 "Hg10 mi
12:00 AM77 °FClear.2 mph100%29.86 "Hg10 mi
11:00 PM
Tue, May 5
79 °FClear.No wind94%29.86 "Hg10 mi
10:00 PM81 °FClear.No wind89%29.89 "Hg5 mi
8:00 PM81 °FLight rain. Passing clouds.2 mph84%29.83 "Hg5 mi
7:00 PM82 °FPassing clouds.2 mph79%29.80 "Hg5 mi
6:00 PM84 °FPassing clouds.3 mph74%29.77 "HgN/A
Weather by CustomWeather, © 2015

See weather overviewHow to use our weather pages